Englewood, CO

8:50 AM MST on February 27, 2017 (GMT -0700)
Centennial

Weather History for KAPA - April, 2013

Change the Weather History Date:

Tuesday, April 2, 2013

  Actual Average Record
Temperature  
Mean Temperature 37 °F -  
Max Temperature 40 °F 54 °F 81 °F (2011)
Min Temperature 34 °F 29 °F 17 °F (2009)
Degree Days  
Heating Degree Days 28    
Month to date heating degree days 51  
Moisture  
Dew Point 34 °F    
Average Humidity 84    
Maximum Humidity 92    
Minimum Humidity 76    
Precipitation  
Precipitation 0.05 in - - ()
Month to date precipitation 0.05  
Year to date precipitation 2.21  
Sea Level Pressure  
Sea Level Pressure 30.09 in    
Wind  
Wind Speed 5 mph (NNW)    
Max Wind Speed 12 mph    
Max Gust Speed 15 mph    
Visibility 5 miles    
Events Rain , Snow    
Averages and records for this station are not official NWS values.
T = Trace of Precipitation, MM = Missing Value Source: NWS Daily Summary

Daily Weather History Graph

Daily Weather History Graph

Search for Another Location

Airport or City:

Trip Planner

Search our weather history database for the weather conditions in past years. The results will help you decide how hot, cold, wet, or windy it might be!

Date:

Astronomy

Apr. 02, 2013 Rise Set
Actual Time 6:41 AM MDT 7:24 PM MDT
Civil Twilight 6:14 AM MDT 7:51 PM MDT
Nautical Twilight 5:42 AM MDT 8:24 PM MDT
Astronomical Twilight 5:09 AM MDT 8:57 PM MDT
Moon 1:30 AM MDT (4/2) 11:36 AM MDT (4/2)
Length of Visible Light 13h 37m
Length of Day
12h 43m
Waning Gibbous, 55% of the Moon is Illuminated
Apr 2
Waning Gibbous
Apr 2
Last Quarter
Apr 10
New
Apr 18
First Quarter
Apr 25
Full

Hourly Weather History & Observations

Time (MDT) Temp. Windchill Dew Point Humidity Pressure Visibility Wind Dir Wind Speed Gust Speed Precip Events Conditions
12:53 AM 37.0 °F 31.6 °F 34.0 °F 89% 30.06 in 6.0 mi WSW 6.9 mph - 0.00 in   Overcast
1:53 AM 37.0 °F 33.3 °F 34.0 °F 89% 30.05 in 7.0 mi WNW 4.6 mph - N/A   Overcast
2:53 AM 37.0 °F 34.5 °F 35.1 °F 93% 30.03 in 5.0 mi West 3.5 mph - N/A   Overcast
3:26 AM 37.4 °F 33.8 °F 33.8 °F 87% 30.06 in 6.0 mi West 4.6 mph - N/A   Overcast
3:53 AM 37.0 °F - 34.0 °F 89% 30.03 in 6.0 mi Calm Calm - N/A   Overcast
4:53 AM 37.0 °F 33.3 °F 33.1 °F 86% 30.03 in 6.0 mi NNW 4.6 mph - N/A   Overcast
5:53 AM 37.0 °F - 33.1 °F 86% 30.03 in 7.0 mi Calm Calm - N/A   Overcast
6:14 AM 37.4 °F - 33.8 °F 87% 30.05 in 6.0 mi Calm Calm - N/A   Overcast
6:53 AM 37.0 °F 32.4 °F 33.1 °F 86% 30.05 in 6.0 mi NNE 5.8 mph - N/A   Overcast
7:53 AM 37.0 °F 33.3 °F 32.0 °F 82% 30.07 in 6.0 mi North 4.6 mph - N/A   Overcast
8:30 AM 37.4 °F 33.8 °F 33.8 °F 87% 30.06 in 6.0 mi North 4.6 mph - N/A   Overcast
8:53 AM 37.0 °F 33.3 °F 32.0 °F 82% 30.08 in 8.0 mi Variable 4.6 mph - N/A   Overcast
9:53 AM 39.0 °F 36.8 °F 32.0 °F 76% 30.08 in 6.0 mi NNE 3.5 mph - N/A   Haze
10:53 AM 39.0 °F - 32.0 °F 76% 30.09 in 6.0 mi Calm Calm - N/A   Haze
11:53 AM 39.0 °F 34.0 °F 33.1 °F 79% 30.09 in 5.0 mi NNE 6.9 mph - N/A   Haze
12:53 PM 37.0 °F 31.0 °F 34.0 °F 89% 30.11 in 5.0 mi North 8.1 mph - 0.01 in   Overcast
1:53 PM 37.0 °F 30.4 °F 35.1 °F 93% 30.11 in 4.0 mi North 9.2 mph - 0.01 in Rain Light Rain
2:07 PM 37.4 °F 31.4 °F 35.6 °F 93% 30.07 in 4.0 mi North 8.1 mph - 0.00 in   Overcast
2:38 PM 37.4 °F 31.4 °F 35.6 °F 93% 30.06 in 4.0 mi North 8.1 mph - 0.00 in Rain Light Rain
2:53 PM 37.9 °F 31.5 °F 36.0 °F 93% 30.09 in 4.0 mi NNW 9.2 mph - 0.00 in Rain Light Rain
3:53 PM 37.0 °F 29.8 °F 35.1 °F 93% 30.09 in 3.0 mi NNW 10.4 mph - 0.00 in   Overcast
4:53 PM 36.0 °F 29.6 °F 34.0 °F 93% 30.09 in 3.0 mi NNW 8.1 mph - 0.00 in Rain Light Rain
5:53 PM 35.1 °F 29.3 °F 35.1 °F 100% 30.12 in 3.0 mi NNW 6.9 mph - 0.00 in   Overcast
6:28 PM 35.6 °F 29.9 °F 35.6 °F 100% 30.08 in 3.0 mi North 6.9 mph - 0.00 in Rain Light Rain
6:53 PM 35.1 °F 30.1 °F 35.1 °F 100% 30.13 in 3.0 mi North 5.8 mph - 0.01 in Rain Light Rain
7:53 PM 35.1 °F 31.0 °F 34.0 °F 96% 30.14 in 3.0 mi NNW 4.6 mph - 0.01 in Rain Light Rain
8:53 PM 34.0 °F 28.8 °F 34.0 °F 100% 30.16 in 3.0 mi West 5.8 mph - 0.01 in   Overcast
9:53 PM 35.1 °F 30.1 °F 34.0 °F 96% 30.16 in 3.0 mi WNW 5.8 mph - 0.00 in Rain , Snow Light Rain
10:53 PM 35.1 °F 30.1 °F 35.1 °F 100% 30.15 in 3.0 mi WNW 5.8 mph - 0.00 in   Overcast
11:53 PM 35.1 °F 31.0 °F 35.1 °F 100% 30.14 in 3.0 mi WNW 4.6 mph - 0.00 in   Light Drizzle